#datetime,building,power
2023-08-09T00:00:00,mfh,25.32
2023-08-09T00:01:00,mfh,24.69
2023-08-09T00:02:00,mfh,24.72
2023-08-09T00:03:00,mfh,24.65
2023-08-09T00:04:00,mfh,24.65
2023-08-09T00:05:00,mfh,25.25
2023-08-09T00:06:00,mfh,25.32
2023-08-09T00:07:00,mfh,25.35
2023-08-09T00:08:00,mfh,25.41
2023-08-09T00:09:00,mfh,25.62
2023-08-09T00:10:00,mfh,24.84
2023-08-09T00:11:00,mfh,24.83
2023-08-09T00:12:00,mfh,24.83
2023-08-09T00:13:00,mfh,25.46
2023-08-09T00:14:00,mfh,25.56
2023-08-09T00:15:00,mfh,25.70
2023-08-09T00:16:00,mfh,25.58
2023-08-09T00:17:00,mfh,25.66
2023-08-09T00:18:00,mfh,25.64
2023-08-09T00:19:00,mfh,24.85
2023-08-09T00:20:00,mfh,24.98
2023-08-09T00:21:00,mfh,25.39
2023-08-09T00:22:00,mfh,24.96
2023-08-09T00:23:00,mfh,25.59
2023-08-09T00:24:00,mfh,26.00
2023-08-09T00:25:00,mfh,25.54
2023-08-09T00:26:00,mfh,25.89
2023-08-09T00:27:00,mfh,24.71
2023-08-09T00:28:00,mfh,24.03
2023-08-09T00:29:00,mfh,23.93
2023-08-09T00:30:00,mfh,24.02
2023-08-09T00:31:00,mfh,24.79
2023-08-09T00:32:00,mfh,24.65
2023-08-09T00:33:00,mfh,24.66
2023-08-09T00:34:00,mfh,24.66
2023-08-09T00:35:00,mfh,24.65
2023-08-09T00:36:00,mfh,25.55
2023-08-09T00:37:00,mfh,24.15
2023-08-09T00:38:00,mfh,25.65
2023-08-09T00:39:00,mfh,25.74
2023-08-09T00:40:00,mfh,25.74
2023-08-09T00:41:00,mfh,26.38
2023-08-09T00:42:00,mfh,26.26
2023-08-09T00:43:00,mfh,26.26
2023-08-09T00:44:00,mfh,26.30
2023-08-09T00:45:00,mfh,25.57
2023-08-09T00:46:00,mfh,26.05
2023-08-09T00:47:00,mfh,24.12
2023-08-09T00:48:00,mfh,24.11
2023-08-09T00:49:00,mfh,24.98
2023-08-09T00:50:00,mfh,24.98
2023-08-09T00:51:00,mfh,24.83
2023-08-09T00:52:00,mfh,24.78
2023-08-09T00:53:00,mfh,24.68
2023-08-09T00:54:00,mfh,24.76
2023-08-09T00:55:00,mfh,24.17
2023-08-09T00:56:00,mfh,24.20
2023-08-09T00:57:00,mfh,24.12
2023-08-09T00:58:00,mfh,24.11
2023-08-09T00:59:00,mfh,24.78
2023-08-09T01:00:00,mfh,24.86
2023-08-09T01:01:00,mfh,24.88
2023-08-09T01:02:00,mfh,24.75
2023-08-09T01:03:00,mfh,24.16
2023-08-09T01:04:00,mfh,24.60
2023-08-09T01:05:00,mfh,24.04
2023-08-09T01:06:00,mfh,24.00
2023-08-09T01:07:00,mfh,24.53
2023-08-09T01:08:00,mfh,24.90
2023-08-09T01:09:00,mfh,24.55
2023-08-09T01:10:00,mfh,24.58
2023-08-09T01:11:00,mfh,24.49
2023-08-09T01:12:00,mfh,24.51
2023-08-09T01:13:00,mfh,24.01
2023-08-09T01:14:00,mfh,23.85
2023-08-09T01:15:00,mfh,23.98
2023-08-09T01:16:00,mfh,24.80
2023-08-09T01:17:00,mfh,24.62
2023-08-09T01:18:00,mfh,24.82
2023-08-09T01:19:00,mfh,24.69
2023-08-09T01:20:00,mfh,24.79
2023-08-09T01:21:00,mfh,24.32
2023-08-09T01:22:00,mfh,24.04
2023-08-09T01:23:00,mfh,24.05
2023-08-09T01:24:00,mfh,23.95
2023-08-09T01:25:00,mfh,24.81
2023-08-09T01:26:00,mfh,24.50
2023-08-09T01:27:00,mfh,24.50
2023-08-09T01:28:00,mfh,24.73
2023-08-09T01:29:00,mfh,24.80
2023-08-09T01:30:00,mfh,24.01
2023-08-09T01:31:00,mfh,24.35
2023-08-09T01:32:00,mfh,23.85
2023-08-09T01:33:00,mfh,23.91
2023-08-09T01:34:00,mfh,24.47
2023-08-09T01:35:00,mfh,24.44
2023-08-09T01:36:00,mfh,24.54
2023-08-09T01:37:00,mfh,24.52
2023-08-09T01:38:00,mfh,24.51
2023-08-09T01:39:00,mfh,23.90
2023-08-09T01:40:00,mfh,23.89
2023-08-09T01:41:00,mfh,23.75
2023-08-09T01:42:00,mfh,23.75
2023-08-09T01:43:00,mfh,24.45
2023-08-09T01:44:00,mfh,24.45
2023-08-09T01:45:00,mfh,24.46
2023-08-09T01:46:00,mfh,24.38
2023-08-09T01:47:00,mfh,24.42
2023-08-09T01:48:00,mfh,23.73
2023-08-09T01:49:00,mfh,23.73
2023-08-09T01:50:00,mfh,23.89
2023-08-09T01:51:00,mfh,24.44
2023-08-09T01:52:00,mfh,24.45
2023-08-09T01:53:00,mfh,24.44
2023-08-09T01:54:00,mfh,24.41
2023-08-09T01:55:00,mfh,24.42
2023-08-09T01:56:00,mfh,23.88
2023-08-09T01:57:00,mfh,24.29
2023-08-09T01:58:00,mfh,23.93
2023-08-09T01:59:00,mfh,24.03
2023-08-09T02:00:00,mfh,25.21
2023-08-09T02:01:00,mfh,24.45
2023-08-09T02:02:00,mfh,24.48
2023-08-09T02:03:00,mfh,24.61
2023-08-09T02:04:00,mfh,24.56
2023-08-09T02:05:00,mfh,24.55
2023-08-09T02:06:00,mfh,23.90
2023-08-09T02:07:00,mfh,23.88
2023-08-09T02:08:00,mfh,24.04
2023-08-09T02:09:00,mfh,24.05
2023-08-09T02:10:00,mfh,24.88
2023-08-09T02:11:00,mfh,24.78
2023-08-09T02:12:00,mfh,24.77
2023-08-09T02:13:00,mfh,24.66
2023-08-09T02:14:00,mfh,23.95
2023-08-09T02:15:00,mfh,23.95
2023-08-09T02:16:00,mfh,23.90
2023-08-09T02:17:00,mfh,24.38
2023-08-09T02:18:00,mfh,24.64
2023-08-09T02:19:00,mfh,24.63
2023-08-09T02:20:00,mfh,24.57
2023-08-09T02:21:00,mfh,24.58
2023-08-09T02:22:00,mfh,24.97
2023-08-09T02:23:00,mfh,24.05
2023-08-09T02:24:00,mfh,24.09
2023-08-09T02:25:00,mfh,24.07
2023-08-09T02:26:00,mfh,24.77
2023-08-09T02:27:00,mfh,24.90
2023-08-09T02:28:00,mfh,24.89
2023-08-09T02:29:00,mfh,24.81
2023-08-09T02:30:00,mfh,24.76
2023-08-09T02:31:00,mfh,24.02
2023-08-09T02:32:00,mfh,24.12
2023-08-09T02:33:00,mfh,23.92
2023-08-09T02:34:00,mfh,23.85
2023-08-09T02:35:00,mfh,24.43
2023-08-09T02:36:00,mfh,24.44
2023-08-09T02:37:00,mfh,24.97
2023-08-09T02:38:00,mfh,24.71
2023-08-09T02:39:00,mfh,24.67
2023-08-09T02:40:00,mfh,24.54
2023-08-09T02:41:00,mfh,23.84
2023-08-09T02:42:00,mfh,24.14
2023-08-09T02:43:00,mfh,24.43
2023-08-09T02:44:00,mfh,24.59
2023-08-09T02:45:00,mfh,24.56
2023-08-09T02:46:00,mfh,24.67
2023-08-09T02:47:00,mfh,24.74
2023-08-09T02:48:00,mfh,24.75
2023-08-09T02:49:00,mfh,24.05
2023-08-09T02:50:00,mfh,24.06
2023-08-09T02:51:00,mfh,24.55
2023-08-09T02:52:00,mfh,24.42
2023-08-09T02:53:00,mfh,24.66
2023-08-09T02:54:00,mfh,24.74
2023-08-09T02:55:00,mfh,24.79
2023-08-09T02:56:00,mfh,24.86
2023-08-09T02:57:00,mfh,24.75
2023-08-09T02:58:00,mfh,24.12
2023-08-09T02:59:00,mfh,23.68
2023-08-09T03:00:00,mfh,23.68
2023-08-09T03:01:00,mfh,23.67
2023-08-09T03:02:00,mfh,24.27
2023-08-09T03:03:00,mfh,24.30
2023-08-09T03:04:00,mfh,24.35
2023-08-09T03:05:00,mfh,24.94
2023-08-09T03:06:00,mfh,24.48
2023-08-09T03:07:00,mfh,23.67
2023-08-09T03:08:00,mfh,23.68
2023-08-09T03:09:00,mfh,23.60
2023-08-09T03:10:00,mfh,24.18
2023-08-09T03:11:00,mfh,24.41
2023-08-09T03:12:00,mfh,25.04
2023-08-09T03:13:00,mfh,25.26
2023-08-09T03:14:00,mfh,26.01
2023-08-09T03:15:00,mfh,25.22
2023-08-09T03:16:00,mfh,24.54
2023-08-09T03:17:00,mfh,24.53
2023-08-09T03:18:00,mfh,23.74
2023-08-09T03:19:00,mfh,23.66
2023-08-09T03:20:00,mfh,24.24
2023-08-09T03:21:00,mfh,24.15
2023-08-09T03:22:00,mfh,24.63
2023-08-09T03:23:00,mfh,24.21
2023-08-09T03:24:00,mfh,24.18
2023-08-09T03:25:00,mfh,23.79
2023-08-09T03:26:00,mfh,23.80
2023-08-09T03:27:00,mfh,23.79
2023-08-09T03:28:00,mfh,24.35
2023-08-09T03:29:00,mfh,24.68
2023-08-09T03:30:00,mfh,24.22
2023-08-09T03:31:00,mfh,24.26
2023-08-09T03:32:00,mfh,24.40
2023-08-09T03:33:00,mfh,24.37
2023-08-09T03:34:00,mfh,23.76
2023-08-09T03:35:00,mfh,23.73
2023-08-09T03:36:00,mfh,23.73
2023-08-09T03:37:00,mfh,24.24
2023-08-09T03:38:00,mfh,24.29
2023-08-09T03:39:00,mfh,24.24
2023-08-09T03:40:00,mfh,24.69
2023-08-09T03:41:00,mfh,24.22
2023-08-09T03:42:00,mfh,23.51
2023-08-09T03:43:00,mfh,23.60
2023-08-09T03:44:00,mfh,23.49
2023-08-09T03:45:00,mfh,24.54
2023-08-09T03:46:00,mfh,24.70
2023-08-09T03:47:00,mfh,24.20
2023-08-09T03:48:00,mfh,24.14
2023-08-09T03:49:00,mfh,24.26
2023-08-09T03:50:00,mfh,24.04
2023-08-09T03:51:00,mfh,24.01
2023-08-09T03:52:00,mfh,23.38
2023-08-09T03:53:00,mfh,24.87
2023-08-09T03:54:00,mfh,25.02
2023-08-09T03:55:00,mfh,25.70
2023-08-09T03:56:00,mfh,25.67
2023-08-09T03:57:00,mfh,25.84
2023-08-09T03:58:00,mfh,25.82
2023-08-09T03:59:00,mfh,26.13
2023-08-09T04:00:00,mfh,25.37
2023-08-09T04:01:00,mfh,23.68
2023-08-09T04:02:00,mfh,23.67
2023-08-09T04:03:00,mfh,23.67
2023-08-09T04:04:00,mfh,24.91
2023-08-09T04:05:00,mfh,24.27
2023-08-09T04:06:00,mfh,24.27
2023-08-09T04:07:00,mfh,24.15
2023-08-09T04:08:00,mfh,24.15
2023-08-09T04:09:00,mfh,23.95
2023-08-09T04:10:00,mfh,24.00
2023-08-09T04:11:00,mfh,24.04
2023-08-09T04:12:00,mfh,24.16
2023-08-09T04:13:00,mfh,24.52
2023-08-09T04:14:00,mfh,25.02
2023-08-09T04:15:00,mfh,25.82
2023-08-09T04:16:00,mfh,24.53
2023-08-09T04:17:00,mfh,24.47
2023-08-09T04:18:00,mfh,23.77
2023-08-09T04:19:00,mfh,23.77
2023-08-09T04:20:00,mfh,24.02
2023-08-09T04:21:00,mfh,24.63
2023-08-09T04:22:00,mfh,24.65
2023-08-09T04:23:00,mfh,24.63
2023-08-09T04:24:00,mfh,24.87
2023-08-09T04:25:00,mfh,24.88
2023-08-09T04:26:00,mfh,24.82
2023-08-09T04:27:00,mfh,23.96
2023-08-09T04:28:00,mfh,24.69
2023-08-09T04:29:00,mfh,31.70
2023-08-09T04:30:00,mfh,33.25
2023-08-09T04:31:00,mfh,33.28
2023-08-09T04:32:00,mfh,33.41
2023-08-09T04:33:00,mfh,33.38
2023-08-09T04:34:00,mfh,33.24
2023-08-09T04:35:00,mfh,32.61
2023-08-09T04:36:00,mfh,32.46
2023-08-09T04:37:00,mfh,32.45
2023-08-09T04:38:00,mfh,32.52
2023-08-09T04:39:00,mfh,33.34
2023-08-09T04:40:00,mfh,33.46
2023-08-09T04:41:00,mfh,33.68
2023-08-09T04:42:00,mfh,33.77
2023-08-09T04:43:00,mfh,34.51
2023-08-09T04:44:00,mfh,32.95
2023-08-09T04:45:00,mfh,32.94
2023-08-09T04:46:00,mfh,32.95
2023-08-09T04:47:00,mfh,32.83
2023-08-09T04:48:00,mfh,34.20
2023-08-09T04:49:00,mfh,33.44
2023-08-09T04:50:00,mfh,33.40
2023-08-09T04:51:00,mfh,33.34
2023-08-09T04:52:00,mfh,33.38
2023-08-09T04:53:00,mfh,32.78
2023-08-09T04:54:00,mfh,32.84
2023-08-09T04:55:00,mfh,32.84
2023-08-09T04:56:00,mfh,32.81
2023-08-09T04:57:00,mfh,33.40
2023-08-09T04:58:00,mfh,33.39
2023-08-09T04:59:00,mfh,33.36
2023-08-09T05:00:00,mfh,33.62
2023-08-09T05:01:00,mfh,49.47
2023-08-09T05:02:00,mfh,52.79
2023-08-09T05:03:00,mfh,52.76
2023-08-09T05:04:00,mfh,52.75
2023-08-09T05:05:00,mfh,53.62
2023-08-09T05:06:00,mfh,53.40
2023-08-09T05:07:00,mfh,53.64
2023-08-09T05:08:00,mfh,53.92
2023-08-09T05:09:00,mfh,54.02
2023-08-09T05:10:00,mfh,54.07
2023-08-09T05:11:00,mfh,53.29
2023-08-09T05:12:00,mfh,53.16
2023-08-09T05:13:00,mfh,53.10
2023-08-09T05:14:00,mfh,54.21
2023-08-09T05:15:00,mfh,54.76
2023-08-09T05:16:00,mfh,54.63
2023-08-09T05:17:00,mfh,54.79
2023-08-09T05:18:00,mfh,54.70
2023-08-09T05:19:00,mfh,54.08
2023-08-09T05:20:00,mfh,54.31
2023-08-09T05:21:00,mfh,55.84
2023-08-09T05:22:00,mfh,56.53
2023-08-09T05:23:00,mfh,55.07
2023-08-09T05:24:00,mfh,54.56
2023-08-09T05:25:00,mfh,55.89
2023-08-09T05:26:00,mfh,54.67
2023-08-09T05:27:00,mfh,54.55
2023-08-09T05:28:00,mfh,53.84
2023-08-09T05:29:00,mfh,54.02
2023-08-09T05:30:00,mfh,54.08
2023-08-09T05:31:00,mfh,54.26
2023-08-09T05:32:00,mfh,54.65
2023-08-09T05:33:00,mfh,55.01
2023-08-09T05:34:00,mfh,54.48
2023-08-09T05:35:00,mfh,54.79
2023-08-09T05:36:00,mfh,54.05
2023-08-09T05:37:00,mfh,54.03
2023-08-09T05:38:00,mfh,54.02
2023-08-09T05:39:00,mfh,53.37
2023-08-09T05:40:00,mfh,53.41
2023-08-09T05:41:00,mfh,54.07
2023-08-09T05:42:00,mfh,53.43
2023-08-09T05:43:00,mfh,53.50
2023-08-09T05:44:00,mfh,53.52
2023-08-09T05:45:00,mfh,52.96
2023-08-09T05:46:00,mfh,52.95
2023-08-09T05:47:00,mfh,52.92
2023-08-09T05:48:00,mfh,53.00
2023-08-09T05:49:00,mfh,53.55
2023-08-09T05:50:00,mfh,53.76
2023-08-09T05:51:00,mfh,53.79
2023-08-09T05:52:00,mfh,53.96
2023-08-09T05:53:00,mfh,54.04
2023-08-09T05:54:00,mfh,53.22
2023-08-09T05:55:00,mfh,53.20
2023-08-09T05:56:00,mfh,53.38
2023-08-09T05:57:00,mfh,54.14
2023-08-09T05:58:00,mfh,54.03
2023-08-09T05:59:00,mfh,53.80
2023-08-09T06:00:00,mfh,53.73
2023-08-09T06:01:00,mfh,58.27
2023-08-09T06:02:00,mfh,57.95
2023-08-09T06:03:00,mfh,58.36
2023-08-09T06:04:00,mfh,57.22
2023-08-09T06:05:00,mfh,57.23
2023-08-09T06:06:00,mfh,57.16
2023-08-09T06:07:00,mfh,58.10
2023-08-09T06:08:00,mfh,57.76
2023-08-09T06:09:00,mfh,58.24
2023-08-09T06:10:00,mfh,57.85
2023-08-09T06:11:00,mfh,58.19
2023-08-09T06:12:00,mfh,58.35
2023-08-09T06:13:00,mfh,59.03
2023-08-09T06:14:00,mfh,59.15
2023-08-09T06:15:00,mfh,58.12
2023-08-09T06:16:00,mfh,57.88
2023-08-09T06:17:00,mfh,58.19
2023-08-09T06:18:00,mfh,58.89
2023-08-09T06:19:00,mfh,58.67
2023-08-09T06:20:00,mfh,58.42
2023-08-09T06:21:00,mfh,58.08
2023-08-09T06:22:00,mfh,58.25
2023-08-09T06:23:00,mfh,58.00
2023-08-09T06:24:00,mfh,58.00
2023-08-09T06:25:00,mfh,57.18
2023-08-09T06:26:00,mfh,57.52
2023-08-09T06:27:00,mfh,57.93
2023-08-09T06:28:00,mfh,58.45
2023-08-09T06:29:00,mfh,58.41
2023-08-09T06:30:00,mfh,58.41
2023-08-09T06:31:00,mfh,59.02
2023-08-09T06:32:00,mfh,58.83
2023-08-09T06:33:00,mfh,58.91
2023-08-09T06:34:00,mfh,58.75
2023-08-09T06:35:00,mfh,58.60
2023-08-09T06:36:00,mfh,58.58
2023-08-09T06:37:00,mfh,58.64
2023-08-09T06:38:00,mfh,58.09
2023-08-09T06:39:00,mfh,58.52
2023-08-09T06:40:00,mfh,58.67
2023-08-09T06:41:00,mfh,58.63
2023-08-09T06:42:00,mfh,58.69
2023-08-09T06:43:00,mfh,58.69
2023-08-09T06:44:00,mfh,58.59
2023-08-09T06:45:00,mfh,59.05
2023-08-09T06:46:00,mfh,58.35
2023-08-09T06:47:00,mfh,58.21
2023-08-09T06:48:00,mfh,58.30
2023-08-09T06:49:00,mfh,58.94
2023-08-09T06:50:00,mfh,58.75
2023-08-09T06:51:00,mfh,58.73
2023-08-09T06:52:00,mfh,58.85
2023-08-09T06:53:00,mfh,58.84
2023-08-09T06:54:00,mfh,58.80
2023-08-09T06:55:00,mfh,58.97
2023-08-09T06:56:00,mfh,58.81
2023-08-09T06:57:00,mfh,59.05
2023-08-09T06:58:00,mfh,58.01
2023-08-09T06:59:00,mfh,64.55
2023-08-09T07:00:00,mfh,70.98
2023-08-09T07:01:00,mfh,77.83
2023-08-09T07:02:00,mfh,77.63
2023-08-09T07:03:00,mfh,78.05
2023-08-09T07:04:00,mfh,77.58
2023-08-09T07:05:00,mfh,77.40
2023-08-09T07:06:00,mfh,77.41
2023-08-09T07:07:00,mfh,77.28
2023-08-09T07:08:00,mfh,71.09
2023-08-09T07:09:00,mfh,70.81
2023-08-09T07:10:00,mfh,70.83
2023-08-09T07:11:00,mfh,70.14
2023-08-09T07:12:00,mfh,70.67
2023-08-09T07:13:00,mfh,70.82
2023-08-09T07:14:00,mfh,70.69
2023-08-09T07:15:00,mfh,70.55
2023-08-09T07:16:00,mfh,70.70
2023-08-09T07:17:00,mfh,70.91
2023-08-09T07:18:00,mfh,70.63
2023-08-09T07:19:00,mfh,70.66
2023-08-09T07:20:00,mfh,70.27
2023-08-09T07:21:00,mfh,70.37
2023-08-09T07:22:00,mfh,70.50
2023-08-09T07:23:00,mfh,70.83
2023-08-09T07:24:00,mfh,71.02
2023-08-09T07:25:00,mfh,71.02
2023-08-09T07:26:00,mfh,71.02
2023-08-09T07:27:00,mfh,71.64
2023-08-09T07:28:00,mfh,71.89
2023-08-09T07:29:00,mfh,71.85
2023-08-09T07:30:00,mfh,71.03
2023-08-09T07:31:00,mfh,70.98
2023-08-09T07:32:00,mfh,70.17
2023-08-09T07:33:00,mfh,70.92
2023-08-09T07:34:00,mfh,70.94
2023-08-09T07:35:00,mfh,70.67
2023-08-09T07:36:00,mfh,71.37
2023-08-09T07:37:00,mfh,71.00
2023-08-09T07:38:00,mfh,70.70
2023-08-09T07:39:00,mfh,70.95
2023-08-09T07:40:00,mfh,71.04
2023-08-09T07:41:00,mfh,70.81
2023-08-09T07:42:00,mfh,70.37
2023-08-09T07:43:00,mfh,70.21
2023-08-09T07:44:00,mfh,70.15
2023-08-09T07:45:00,mfh,70.70
2023-08-09T07:46:00,mfh,70.65
2023-08-09T07:47:00,mfh,70.84
2023-08-09T07:48:00,mfh,70.50
2023-08-09T07:49:00,mfh,70.42
2023-08-09T07:50:00,mfh,70.27
2023-08-09T07:51:00,mfh,70.45
2023-08-09T07:52:00,mfh,70.49
2023-08-09T07:53:00,mfh,70.07
2023-08-09T07:54:00,mfh,69.92
2023-08-09T07:55:00,mfh,69.73
2023-08-09T07:56:00,mfh,70.61
2023-08-09T07:57:00,mfh,70.48
2023-08-09T07:58:00,mfh,70.25
2023-08-09T07:59:00,mfh,70.41
2023-08-09T08:00:00,mfh,70.06
2023-08-09T08:01:00,mfh,70.26
2023-08-09T08:02:00,mfh,70.17
2023-08-09T08:03:00,mfh,70.27
2023-08-09T08:04:00,mfh,70.26
2023-08-09T08:05:00,mfh,69.91
2023-08-09T08:06:00,mfh,70.69
2023-08-09T08:07:00,mfh,70.07
2023-08-09T08:08:00,mfh,70.48
2023-08-09T08:09:00,mfh,70.66
2023-08-09T08:10:00,mfh,70.62
2023-08-09T08:11:00,mfh,70.75
2023-08-09T08:12:00,mfh,70.67
2023-08-09T08:13:00,mfh,70.72
2023-08-09T08:14:00,mfh,70.67
2023-08-09T08:15:00,mfh,70.11
2023-08-09T08:16:00,mfh,70.05
2023-08-09T08:17:00,mfh,70.06
2023-08-09T08:18:00,mfh,71.16
2023-08-09T08:19:00,mfh,71.35
2023-08-09T08:20:00,mfh,71.31
2023-08-09T08:21:00,mfh,71.52
2023-08-09T08:22:00,mfh,71.59
2023-08-09T08:23:00,mfh,71.36
2023-08-09T08:24:00,mfh,70.71
2023-08-09T08:25:00,mfh,70.60
2023-08-09T08:26:00,mfh,70.75
2023-08-09T08:27:00,mfh,70.17
2023-08-09T08:28:00,mfh,70.00
2023-08-09T08:29:00,mfh,69.97
2023-08-09T08:30:00,mfh,70.58
2023-08-09T08:31:00,mfh,70.54
2023-08-09T08:32:00,mfh,70.58
2023-08-09T08:33:00,mfh,70.56
2023-08-09T08:34:00,mfh,70.62
2023-08-09T08:35:00,mfh,71.13
2023-08-09T08:36:00,mfh,70.68
2023-08-09T08:37:00,mfh,70.21
2023-08-09T08:38:00,mfh,70.10
2023-08-09T08:39:00,mfh,65.30
2023-08-09T08:40:00,mfh,65.23
2023-08-09T08:41:00,mfh,66.05
2023-08-09T08:42:00,mfh,58.83
2023-08-09T08:43:00,mfh,60.09
2023-08-09T08:44:00,mfh,59.93
2023-08-09T08:45:00,mfh,59.90
2023-08-09T08:46:00,mfh,60.05
2023-08-09T08:47:00,mfh,60.15
2023-08-09T08:48:00,mfh,60.13
2023-08-09T08:49:00,mfh,59.83
2023-08-09T08:50:00,mfh,60.14
2023-08-09T08:51:00,mfh,60.20
2023-08-09T08:52:00,mfh,60.35
2023-08-09T08:53:00,mfh,61.11
2023-08-09T08:54:00,mfh,60.81
2023-08-09T08:55:00,mfh,60.73
2023-08-09T08:56:00,mfh,60.05
2023-08-09T08:57:00,mfh,60.06
2023-08-09T08:58:00,mfh,60.91
2023-08-09T08:59:00,mfh,60.20
2023-08-09T09:00:00,mfh,59.56
2023-08-09T09:01:00,mfh,60.02
2023-08-09T09:02:00,mfh,59.95
2023-08-09T09:03:00,mfh,61.27
2023-08-09T09:04:00,mfh,60.48
2023-08-09T09:05:00,mfh,60.41
2023-08-09T09:06:00,mfh,60.66
2023-08-09T09:07:00,mfh,60.18
2023-08-09T09:08:00,mfh,60.29
2023-08-09T09:09:00,mfh,60.14
2023-08-09T09:10:00,mfh,60.23
2023-08-09T09:11:00,mfh,59.43
2023-08-09T09:12:00,mfh,60.07
2023-08-09T09:13:00,mfh,59.45
2023-08-09T09:14:00,mfh,60.28
2023-08-09T09:15:00,mfh,60.52
2023-08-09T09:16:00,mfh,60.85
2023-08-09T09:17:00,mfh,60.33
2023-08-09T09:18:00,mfh,61.10
2023-08-09T09:19:00,mfh,60.42
2023-08-09T09:20:00,mfh,60.41
2023-08-09T09:21:00,mfh,59.80
2023-08-09T09:22:00,mfh,59.62
2023-08-09T09:23:00,mfh,59.78
2023-08-09T09:24:00,mfh,60.09
2023-08-09T09:25:00,mfh,59.86
2023-08-09T09:26:00,mfh,60.23
2023-08-09T09:27:00,mfh,60.20
2023-08-09T09:28:00,mfh,60.05
2023-08-09T09:29:00,mfh,60.06
2023-08-09T09:30:00,mfh,60.27
2023-08-09T09:31:00,mfh,59.99
2023-08-09T09:32:00,mfh,60.05
2023-08-09T09:33:00,mfh,59.37
2023-08-09T09:34:00,mfh,59.53
2023-08-09T09:35:00,mfh,59.46
2023-08-09T09:36:00,mfh,60.22
2023-08-09T09:37:00,mfh,60.60
2023-08-09T09:38:00,mfh,60.05
2023-08-09T09:39:00,mfh,60.36
2023-08-09T09:40:00,mfh,60.14
2023-08-09T09:41:00,mfh,59.97
2023-08-09T09:42:00,mfh,60.02
2023-08-09T09:43:00,mfh,59.38
2023-08-09T09:44:00,mfh,59.30
2023-08-09T09:45:00,mfh,59.34
2023-08-09T09:46:00,mfh,59.98
2023-08-09T09:47:00,mfh,59.99
2023-08-09T09:48:00,mfh,60.48
2023-08-09T09:49:00,mfh,59.84
2023-08-09T09:50:00,mfh,60.13
2023-08-09T09:51:00,mfh,59.97
2023-08-09T09:52:00,mfh,60.15
2023-08-09T09:53:00,mfh,59.86
2023-08-09T09:54:00,mfh,59.24
2023-08-09T09:55:00,mfh,59.25
2023-08-09T09:56:00,mfh,59.19
2023-08-09T09:57:00,mfh,60.58
2023-08-09T09:58:00,mfh,60.67
2023-08-09T09:59:00,mfh,61.16
2023-08-09T10:00:00,mfh,82.74
2023-08-09T10:01:00,mfh,83.80
2023-08-09T10:02:00,mfh,84.60
2023-08-09T10:03:00,mfh,83.92
2023-08-09T10:04:00,mfh,84.48
2023-08-09T10:05:00,mfh,83.32
2023-08-09T10:06:00,mfh,83.68
2023-08-09T10:07:00,mfh,83.59
2023-08-09T10:08:00,mfh,83.56
2023-08-09T10:09:00,mfh,83.41
2023-08-09T10:10:00,mfh,83.73
2023-08-09T10:11:00,mfh,83.28
2023-08-09T10:12:00,mfh,79.47
2023-08-09T10:13:00,mfh,79.34
2023-08-09T10:14:00,mfh,79.30
2023-08-09T10:15:00,mfh,79.42
2023-08-09T10:16:00,mfh,79.37
2023-08-09T10:17:00,mfh,73.49
2023-08-09T10:18:00,mfh,72.50
2023-08-09T10:19:00,mfh,72.12
2023-08-09T10:20:00,mfh,73.05
2023-08-09T10:21:00,mfh,72.56
2023-08-09T10:22:00,mfh,72.51
2023-08-09T10:23:00,mfh,72.51
2023-08-09T10:24:00,mfh,72.46
2023-08-09T10:25:00,mfh,72.65
2023-08-09T10:26:00,mfh,72.62
2023-08-09T10:27:00,mfh,71.96
2023-08-09T10:28:00,mfh,72.27
2023-08-09T10:29:00,mfh,72.27
2023-08-09T10:30:00,mfh,72.79
2023-08-09T10:31:00,mfh,73.04
2023-08-09T10:32:00,mfh,73.36
2023-08-09T10:33:00,mfh,73.46
2023-08-09T10:34:00,mfh,73.81
2023-08-09T10:35:00,mfh,73.09
2023-08-09T10:36:00,mfh,73.02
2023-08-09T10:37:00,mfh,73.67
2023-08-09T10:38:00,mfh,72.56
2023-08-09T10:39:00,mfh,73.28
2023-08-09T10:40:00,mfh,72.26
2023-08-09T10:41:00,mfh,72.77
2023-08-09T10:42:00,mfh,72.68
2023-08-09T10:43:00,mfh,79.15
2023-08-09T10:44:00,mfh,79.05
2023-08-09T10:45:00,mfh,79.11
2023-08-09T10:46:00,mfh,78.93
2023-08-09T10:47:00,mfh,78.89
2023-08-09T10:48:00,mfh,79.01
2023-08-09T10:49:00,mfh,78.52
2023-08-09T10:50:00,mfh,72.66
2023-08-09T10:51:00,mfh,72.66
2023-08-09T10:52:00,mfh,73.59
2023-08-09T10:53:00,mfh,73.55
2023-08-09T10:54:00,mfh,73.56
2023-08-09T10:55:00,mfh,73.44
2023-08-09T10:56:00,mfh,79.80
2023-08-09T10:57:00,mfh,79.50
2023-08-09T10:58:00,mfh,79.71
2023-08-09T10:59:00,mfh,79.64
2023-08-09T11:00:00,mfh,79.12
2023-08-09T11:01:00,mfh,79.11
2023-08-09T11:02:00,mfh,78.92
2023-08-09T11:03:00,mfh,82.96
2023-08-09T11:04:00,mfh,83.18
2023-08-09T11:05:00,mfh,77.82
2023-08-09T11:06:00,mfh,78.02
2023-08-09T11:07:00,mfh,77.76
2023-08-09T11:08:00,mfh,77.91
2023-08-09T11:09:00,mfh,78.01
2023-08-09T11:10:00,mfh,78.13
2023-08-09T11:11:00,mfh,77.67
2023-08-09T11:12:00,mfh,77.63
2023-08-09T11:13:00,mfh,77.81
2023-08-09T11:14:00,mfh,78.06
2023-08-09T11:15:00,mfh,78.10
2023-08-09T11:16:00,mfh,77.91
2023-08-09T11:17:00,mfh,77.95
2023-08-09T11:18:00,mfh,78.01
2023-08-09T11:19:00,mfh,83.64
2023-08-09T11:20:00,mfh,83.76
2023-08-09T11:21:00,mfh,83.79
2023-08-09T11:22:00,mfh,83.41
2023-08-09T11:23:00,mfh,83.27
2023-08-09T11:24:00,mfh,83.01
2023-08-09T11:25:00,mfh,83.19
2023-08-09T11:26:00,mfh,83.38
2023-08-09T11:27:00,mfh,82.98
2023-08-09T11:28:00,mfh,83.23
2023-08-09T11:29:00,mfh,83.21
2023-08-09T11:30:00,mfh,83.15
2023-08-09T11:31:00,mfh,82.97
2023-08-09T11:32:00,mfh,82.61
2023-08-09T11:33:00,mfh,82.53
2023-08-09T11:34:00,mfh,82.77
2023-08-09T11:35:00,mfh,83.55
2023-08-09T11:36:00,mfh,83.55
2023-08-09T11:37:00,mfh,83.52
2023-08-09T11:38:00,mfh,83.59
2023-08-09T11:39:00,mfh,83.74
2023-08-09T11:40:00,mfh,83.64
2023-08-09T11:41:00,mfh,83.57
2023-08-09T11:42:00,mfh,83.59
2023-08-09T11:43:00,mfh,83.68
2023-08-09T11:44:00,mfh,83.17
2023-08-09T11:45:00,mfh,82.59
2023-08-09T11:46:00,mfh,82.47
2023-08-09T11:47:00,mfh,82.65
2023-08-09T11:48:00,mfh,82.66
2023-08-09T11:49:00,mfh,83.17
2023-08-09T11:50:00,mfh,82.83
2023-08-09T11:51:00,mfh,82.85
2023-08-09T11:52:00,mfh,82.94
2023-08-09T11:53:00,mfh,82.95
2023-08-09T11:54:00,mfh,82.55
2023-08-09T11:55:00,mfh,82.42
2023-08-09T11:56:00,mfh,82.55
2023-08-09T11:57:00,mfh,82.94
2023-08-09T11:58:00,mfh,82.98
2023-08-09T11:59:00,mfh,83.01
2023-08-09T12:00:00,mfh,83.01
2023-08-09T12:01:00,mfh,82.95
2023-08-09T12:02:00,mfh,83.17
2023-08-09T12:03:00,mfh,83.20
2023-08-09T12:04:00,mfh,83.19
2023-08-09T12:05:00,mfh,83.42
2023-08-09T12:06:00,mfh,82.88
2023-08-09T12:07:00,mfh,82.86
2023-08-09T12:08:00,mfh,82.91
2023-08-09T12:09:00,mfh,83.28
2023-08-09T12:10:00,mfh,83.47
2023-08-09T12:11:00,mfh,83.47
2023-08-09T12:12:00,mfh,83.57
2023-08-09T12:13:00,mfh,84.00
2023-08-09T12:14:00,mfh,83.78
2023-08-09T12:15:00,mfh,83.76
2023-08-09T12:16:00,mfh,83.66
2023-08-09T12:17:00,mfh,83.55
2023-08-09T12:18:00,mfh,83.55
2023-08-09T12:19:00,mfh,83.76
2023-08-09T12:20:00,mfh,83.82
2023-08-09T12:21:00,mfh,83.79
2023-08-09T12:22:00,mfh,83.95
2023-08-09T12:23:00,mfh,83.89
2023-08-09T12:24:00,mfh,83.93
2023-08-09T12:25:00,mfh,83.58
2023-08-09T12:26:00,mfh,83.79
2023-08-09T12:27:00,mfh,83.34
2023-08-09T12:28:00,mfh,82.60
2023-08-09T12:29:00,mfh,83.02
2023-08-09T12:30:00,mfh,83.03
2023-08-09T12:31:00,mfh,83.00
2023-08-09T12:32:00,mfh,82.93
2023-08-09T12:33:00,mfh,83.15
2023-08-09T12:34:00,mfh,83.04
2023-08-09T12:35:00,mfh,82.98
2023-08-09T12:36:00,mfh,83.30
2023-08-09T12:37:00,mfh,79.95
2023-08-09T12:38:00,mfh,79.95
2023-08-09T12:39:00,mfh,79.89
2023-08-09T12:40:00,mfh,79.02
2023-08-09T12:41:00,mfh,79.49
2023-08-09T12:42:00,mfh,74.26
2023-08-09T12:43:00,mfh,74.69
2023-08-09T12:44:00,mfh,74.65
2023-08-09T12:45:00,mfh,75.12
2023-08-09T12:46:00,mfh,73.96
2023-08-09T12:47:00,mfh,73.88
2023-08-09T12:48:00,mfh,73.88
2023-08-09T12:49:00,mfh,73.84
2023-08-09T12:50:00,mfh,73.33
2023-08-09T12:51:00,mfh,68.92
2023-08-09T12:52:00,mfh,69.22
2023-08-09T12:53:00,mfh,69.63
2023-08-09T12:54:00,mfh,69.78
2023-08-09T12:55:00,mfh,69.71
2023-08-09T12:56:00,mfh,69.87
2023-08-09T12:57:00,mfh,69.80
2023-08-09T12:58:00,mfh,69.96
2023-08-09T12:59:00,mfh,69.82
2023-08-09T13:00:00,mfh,70.28
2023-08-09T13:01:00,mfh,69.18
2023-08-09T13:02:00,mfh,69.74
2023-08-09T13:03:00,mfh,69.58
2023-08-09T13:04:00,mfh,70.95
2023-08-09T13:05:00,mfh,69.20
2023-08-09T13:06:00,mfh,69.08
2023-08-09T13:07:00,mfh,69.04
2023-08-09T13:08:00,mfh,69.25
2023-08-09T13:09:00,mfh,69.33
2023-08-09T13:10:00,mfh,70.56
2023-08-09T13:11:00,mfh,70.37
2023-08-09T13:12:00,mfh,69.66
2023-08-09T13:13:00,mfh,63.26
2023-08-09T13:14:00,mfh,63.34
2023-08-09T13:15:00,mfh,63.93
2023-08-09T13:16:00,mfh,63.57
2023-08-09T13:17:00,mfh,63.30
2023-08-09T13:18:00,mfh,64.50